Starlink 30897

operational
NORAD ID: 58360 Int'l Des: 2023-177 Owner: SPXS Country: US Constellation: starlink
LEOCIRCULAR

Starlink 30897について

説明を読み込み中...

リアルタイム位置

3D地球を読み込み中...

次回通過

高度履歴

Altitude vs Time

uPlot chart will show altitude changes over time

軌道要素

1 58360U 23177K 26036.72874598 .00001313 00000-0 11209-3 0 9993
2 58360 42.9983 165.6281 0000884 209.2229 150.8564 15.02581924123400
Epoch: Feb 5, 2026 • Age: 17 hours

現在のステータス

高度 566.1 km
速度 7.58 km/s
衛星直下点 -29.27°S, 85.28°E
打ち上げ日 Nov 18, 2023
運用期間 2.2 years
タイプ internet

技術仕様

分類 Payload
質量 730.00 kg
乾燥質量 700.00 kg
総質量 730.00 kg
長さ 0.30 m
直径 4.10 m
スパン 29.00 m
形状 Box + pan
製造者 SPXS
バスタイプ Starlink V2M
フェーズステータス In Orbit
所有者/国 SPXS/US

大規模コンステレーション

Loading constellations...